Flag for Austria Weather past 2 weeks in Graz, Styria, Austria

Now
21 °F

Light fog.


Feels Like: 21 °F
Forecast: 19 / 33 °F
Wind: 1 mph from North

Location: Graz-Thalerhof-Flughafen

Current Time: Jan 28, 2015 at 3:25:39 AM

Latest Report: Jan 28, 2015 at 2:50 AM


Visibility: 1 mi

Pressure: 30.04 "Hg

Humidity: 100%

Dew point: 21 °F

Location of GrazLocation

Historic Weather in Graz — Graph

°F

Graz temperature yesterday

Maximum temperature yesterday: 36 °F (at 3:50 PM)
Minimum temperature yesterday: 21 °F (at 1:20 AM)
Average temperature yesterday: 28 °F

Past Weeks' High & Low Weather Summary

 TemperatureHumidityPressure
High59 °F (Jan 16, 2:20 PM)100% (Jan 13, 2:20 AM)30.24 "Hg (Jan 13, 2:20 AM)
Low21 °F (Jan 26, 7:50 AM)40% (Jan 14, 1:50 PM)29.80 "Hg (Jan 20, 1:50 PM)
Average37 °F79%29.97 "Hg
* Reported Jan 13 2:20 AM — Jan 28 2:20 AM, Graz, Weather by CustomWeather, © 2014

Note: Actual official high and low records may vary slightly from our data, if they occured in-between our weather recording intervals... More about our weather records

Advertising

Graz weather history for previous 24 hours

 ConditionsComfort  
Time TempWeatherWind HumidityBarometerVisibility
2:20 AM
Jan 28
21 °FSnow. Overcast.2 mph93%30.04 "Hg4 mi
1:50 AM21 °FSnow. Overcast.1 mph93%30.04 "Hg1 mi
1:20 AM23 °FCold.3 mph100%30.04 "Hg6 mi
12:50 AM23 °FLight fog.1 mph100%30.04 "Hg1 mi
12:20 AM23 °FLight fog.2 mph93%30.04 "Hg3 mi
11:50 PM
Jan 27
23 °FIce fog.1 mph93%30.04 "Hg1 mi
11:20 PM23 °FLight fog.1 mph100%30.04 "Hg3 mi
10:50 PM25 °FFog.1 mph93%30.04 "Hg4 mi
10:20 PM27 °FPassing clouds.2 mph100%30.04 "Hg5 mi
9:50 PM27 °FFog.1 mph100%30.04 "Hg6 mi
9:20 PM27 °FPassing clouds.3 mph93%30.04 "HgN/A
8:50 PM30 °FPassing clouds.3 mph93%30.04 "HgN/A
8:20 PM28 °FPartly cloudy.No wind93%30.01 "HgN/A
7:50 PM28 °FPartly cloudy.2 mph93%30.04 "HgN/A
7:20 PM28 °FPassing clouds.1 mph93%30.01 "HgN/A
6:50 PM30 °FPassing clouds.1 mph86%30.01 "HgN/A
6:20 PM30 °FPassing clouds.1 mph86%30.01 "HgN/A
5:50 PM32 °FPassing clouds.3 mph87%29.98 "HgN/A
5:20 PM32 °FPassing clouds.2 mph80%29.98 "HgN/A
4:50 PM32 °FPartly sunny.3 mph80%29.98 "HgN/A
4:20 PM36 °FPartly sunny.2 mph70%29.98 "HgN/A
3:50 PM36 °FPartly sunny.1 mph70%29.98 "HgN/A
3:20 PM34 °FPartly sunny.1 mph75%29.98 "HgN/A
2:50 PM34 °FPartly sunny.1 mph75%29.98 "HgN/A
2:20 PM34 °FPartly sunny.2 mph75%29.95 "HgN/A
1:50 PM34 °FPartly sunny.2 mph75%29.95 "HgN/A
1:20 PM34 °FPartly sunny.2 mph75%29.98 "HgN/A
12:50 PM34 °FPartly sunny.3 mph81%29.98 "HgN/A
12:20 PM32 °FPartly sunny.5 mph80%29.98 "HgN/A
11:50 AM32 °FPartly sunny.5 mph87%29.98 "HgN/A
11:20 AM30 °FPartly sunny.5 mph86%29.98 "HgN/A
10:50 AM30 °FPartly sunny.2 mph86%30.01 "HgN/A
10:20 AM30 °FBroken clouds.1 mph86%29.98 "HgN/A
9:50 AM28 °FBroken clouds.1 mph93%29.98 "HgN/A
9:20 AM28 °FSunny.2 mph93%29.98 "Hg10 mi
8:50 AM27 °FSunny.2 mph93%29.98 "Hg10 mi
8:20 AM27 °FBroken clouds.No wind93%29.98 "HgN/A
7:50 AM27 °FBroken clouds.1 mph93%29.98 "HgN/A
7:20 AM27 °FPartly cloudy.1 mph93%29.98 "HgN/A
6:50 AM27 °FPartly cloudy.1 mph93%29.98 "HgN/A
6:20 AM27 °FPartly cloudy.2 mph93%29.98 "HgN/A
5:50 AM27 °FPartly cloudy.2 mph93%29.98 "HgN/A
4:50 AM25 °FPartly cloudy.No wind93%30.01 "HgN/A
4:20 AM23 °FPassing clouds.2 mph100%30.01 "HgN/A
3:50 AM23 °FClear.1 mph93%30.01 "Hg10 mi
3:20 AM23 °FPassing clouds.No wind93%30.04 "Hg4 mi
Weather by CustomWeather, © 2014

See weather overviewHow to use our weather pages